Retour au catalogue

STARLINK-11361

ActifCommunicationsVLEO
NORAD 61585·PAYLOAD·🇺🇸 United States

Lancé Oct 18, 2024 depuis Cape Canaveral Space Force Station

Loading…

Prochains Passages (prochaines 24 heures)

TLE

FraisSource: CelesTrak SupGP

Époque: Sep 15, 2026, 02:21 UTC

1 61585C 24187M   26258.09840278  .00037368  00000+0  30764-3 0  2585
2 61585  53.1568  82.6691 0001038  85.2677  45.4443 15.69704633    13

Suivez STARLINK-11361 en temps réel avec AllMySat

Download on the App Store